Temperature
18 17 16 15 15 14 14 13 12 12 11 11 11 10 10 10 10 9 9 9 9 9 9 9 9 9 9 9 10 10 10 10 10 10 10 9 9 9 10 11 11 11 12
19 18 17 16 15 14 14 13 12 12 11 11 11 10 10 10 9 9 9 9 9 9 9 9 9 9 9 9 10 10 10 10 10 10 10 10 9 9 9 9 9 10 10
19 18 17 16 15 14 14 13 12 12 12 11 10 10 10 10 9 9 9 9 9 9 9 9 9 9 9 9 10 10 10 10 10 10 10 10 9 8 8 8 9 9 9
19 18 17 16 15 14 13 13 12 12 12 11 10 10 10 9 9 9 9 9 9 9 9 9 9 9 9 10 10 10 10 10 10 10 10 9 8 7 8 8 8 8 8
19 18 17 16 15 14 13 13 12 12 12 11 10 10 10 9 9 9 9 9 9 9 9 9 9 9 9 10 10 10 10 10 10 10 10 9 8 7 7 7 8 8 8
19 18 17 16 15 14 13 12 12 12 11 11 10 10 10 9 9 9 9 9 9 9 9 9 9 9 9 9 10 10 10 10 10 10 9 9 8 7 7 7 7 7 7
19 18 17 16 14 13 12 12 12 12 11 11 10 10 10 9 9 9 10 10 9 9 9 9 9 9 9 9 9 10 10 10 9 9 9 9 8 7 7 7 7 7 7
19 18 17 15 14 13 12 12 11 11 11 11 10 10 10 9 9 9 10 10 9 9 9 9 9 9 9 9 9 9 9 9 9 9 9 9 8 7 7 7 7 7 7
18 17 17 16 13 12 12 11 11 11 11 10 10 10 10 9 9 9 9 9 9 9 9 9 9 9 9 9 9 9 9 9 9 9 9 9 8 7 7 7 7 7 7
18 17 16 15 14 12 11 11 11 10 10 10 10 10 10 9 9 9 9 9 9 9 9 9 9 9 9 9 9 9 9 9 9 9 9 8 8 8 7 8 8 7 7
18 17 16 15 15 13 12 11 10 10 10 10 10 10 10 10 10 9 9 9 9 9 9 9 9 9 9 9 9 9 9 9 9 9 8 8 8 8 8 8 8 8 8
19 18 17 16 15 14 12 11 10 10 10 9 10 10 10 10 10 10 10 9 9 9 9 9 9 9 9 9 9 9 9 8 8 8 8 8 8 8 7 7 8 8 8
18 18 17 16 15 14 13 12 11 10 10 10 10 10 10 10 10 10 10 10 9 9 9 9 9 9 9 8 8 8 8 8 8 8 8 8 8 8 7 7 7 7 7
18 18 17 16 15 14 13 12 12 11 11 11 10 10 10 10 10 10 10 10 9 9 9 9 9 8 8 8 8 8 8 8 8 8 8 8 8 8 7 7 6 6 6
17 17 17 16 15 14 13 13 12 12 11 11 10 10 10 10 10 10 10 9 9 9 9 9 8 8 8 8 8 8 8 8 8 8 8 8 8 8 7 7 6 6 5
18 17 17 16 15 14 14 13 13 12 11 11 10 10 10 10 10 10 9 9 9 9 9 8 8 8 8 8 8 8 8 8 8 8 8 8 7 7 7 7 6 5 5
17 17 16 16 15 14 14 13 12 12 11 11 10 10 10 9 9 9 9 9 9 8 8 8 8 8 8 8 8 8 8 8 8 8 7 7 7 7 7 7 7 6 5
18 17 16 16 15 15 14 13 12 12 11 11 10 10 10 9 9 9 9 9 8 8 8 7 7 7 7 7 7 7 7 7 7 7 7 7 7 7 7 7 7 7 6
18 17 16 16 15 15 14 13 12 12 11 11 10 10 10 9 9 9 8 8 8 8 7 7 7 7 7 7 7 7 7 7 7 7 7 7 7 7 7 7 7 7 7
17 17 16 15 15 14 13 13 12 11 11 11 10 10 10 9 9 9 8 8 8 7 7 7 7 7 7 6 6 6 6 7 7 7 7 7 7 8 8 8 7 7 7
17 16 16 15 14 14 13 13 12 12 11 11 11 10 10 9 9 9 8 8 8 7 7 7 6 6 6 6 5 5 6 6 6 7 7 8 8 8 8 8 8 7 7
16 16 15 15 14 13 13 12 11 11 11 11 10 10 10 9 9 9 8 8 8 7 7 6 6 6 6 5 5 5 4 5 6 7 7 8 8 8 8 8 8 8 7
15 15 14 14 13 13 12 11 11 11 11 10 10 10 10 9 9 8 8 8 7 7 7 6 6 6 5 5 5 4 3 4 5 5 5 5 5 6 6 6 6 7 7
14 13 13 13 13 12 12 11 11 11 10 10 10 9 9 9 8 8 8 7 7 7 6 6 6 5 5 4 4 4 4 4 3 3 4 4 4 4 4 5 5 5 5
13 13 12 12 12 12 11 11 11 10 10 10 9 9 9 9 8 8 8 7 7 6 6 6 5 5 5 4 4 4 3 3 2 1 1 2 3 4 4 4 4 4 4
12 12 12 12 11 11 11 10 10 10 10 9 9 9 9 8 8 8 7 7 7 6 6 6 5 5 4 4 3 3 3 2 2 2 0 1 2 3 3 3 3 3 3
Wind_Speed
9 16 24 23 21 19 17 16 14 13 12 11 10 10 10 10 11 11 10 11 11 12 12 12 12 12 13 13 14 15 16 18 19 19 19 18 18 18 18 18 18 17 19
12 22 25 24 22 20 18 16 15 13 12 11 11 10 10 10 10 10 9 10 10 11 11 11 11 12 12 13 13 14 15 16 17 18 18 18 16 17 17 17 17 16 18
12 24 25 25 23 21 19 17 16 14 13 12 11 10 10 9 9 9 8 8 9 9 10 10 10 11 11 12 12 13 14 15 15 17 18 18 15 16 16 16 16 16 17
17 24 23 25 23 21 19 18 16 15 14 13 11 11 10 9 9 8 8 8 8 8 9 9 9 9 10 10 11 11 12 13 14 16 17 17 14 13 14 15 15 15 15
16 23 22 26 24 22 20 19 17 16 15 13 12 11 10 9 9 8 8 7 7 7 7 8 8 8 8 9 9 10 11 11 13 15 16 16 14 12 13 13 13 13 14
13 22 22 26 24 23 21 19 18 17 15 14 13 12 11 10 9 8 8 7 7 6 6 6 6 7 7 7 8 8 9 10 12 14 14 14 12 10 11 11 11 12 12
12 20 20 25 24 23 21 20 19 17 16 15 14 12 11 10 9 9 8 7 7 6 6 5 5 5 5 5 6 7 7 7 9 10 11 12 10 8 9 9 9 9 10
10 17 19 24 24 23 22 20 19 18 17 16 15 13 12 11 11 10 9 8 7 6 5 5 4 4 3 3 4 5 5 4 5 7 9 11 8 6 6 7 7 7 8
11 14 16 19 23 23 22 21 20 19 18 17 16 15 14 13 12 11 10 9 8 7 6 4 3 3 2 1 2 2 3 2 2 4 7 9 7 4 4 4 5 5 5
8 10 14 15 18 20 21 22 21 20 19 18 17 16 14 14 13 12 11 10 9 8 7 5 4 3 2 2 1 2 2 2 1 3 6 8 7 4 2 2 3 3 3
9 9 12 13 14 17 19 21 21 21 20 19 18 17 16 13 12 10 11 11 10 9 8 7 6 6 5 3 3 3 2 3 3 5 7 8 7 5 3 2 2 2 2
15 13 10 12 12 14 17 18 18 19 18 19 17 16 15 13 12 10 10 12 12 11 10 10 9 7 6 4 3 2 2 4 6 8 10 10 9 8 6 5 5 4 4
12 12 13 11 13 13 13 15 14 15 16 17 17 16 14 13 12 11 10 10 10 8 7 6 5 4 4 6 6 6 6 7 9 11 12 12 12 11 10 9 8 7 7
9 12 12 11 11 13 13 13 13 13 13 14 16 17 15 12 11 11 11 11 10 8 7 7 6 6 7 8 9 10 11 11 13 14 15 15 15 15 14 13 12 11 10
10 11 11 10 10 11 11 11 13 13 14 15 17 18 19 14 12 12 12 13 12 12 10 10 10 9 9 10 11 12 13 15 16 17 18 17 18 18 17 16 16 15 14
12 11 11 12 12 12 10 9 10 13 14 15 17 19 21 19 16 14 13 13 15 15 15 14 13 11 11 11 12 14 16 17 18 19 20 20 20 21 20 20 19 18 17
9 9 11 12 10 11 11 11 12 13 15 15 16 19 21 20 18 16 13 13 16 18 16 14 12 10 9 9 9 14 15 17 18 20 21 21 22 23 23 23 23 22 21
7 7 10 11 12 12 10 11 11 12 14 15 16 18 21 21 21 18 13 14 18 17 15 10 7 6 7 7 8 8 12 14 17 20 21 22 22 22 24 26 26 25 24
5 6 8 10 11 11 10 9 10 11 13 14 16 17 19 21 21 19 16 16 17 14 13 10 7 7 8 10 10 9 9 11 15 18 19 22 23 24 25 26 28 28 27
1 3 5 7 7 7 6 5 5 6 7 11 14 17 18 20 21 20 17 16 15 9 9 9 10 9 8 8 9 10 9 10 11 13 18 21 23 25 26 26 26 27 29
7 3 1 3 5 5 4 5 5 7 5 5 10 16 18 20 20 20 15 13 13 11 13 12 9 9 9 5 4 7 8 12 15 15 15 16 19 25 25 26 25 24 25
9 6 3 1 3 5 4 4 3 3 4 5 7 13 18 20 20 19 16 12 11 11 12 12 11 7 7 7 6 3 6 6 8 13 13 13 14 16 18 24 24 24 24
11 9 5 3 1 3 4 3 2 1 1 2 5 6 11 18 19 20 19 16 12 12 14 15 15 13 11 9 10 7 6 8 4 5 8 10 11 10 11 15 21 24 25
8 8 7 5 3 1 3 4 5 5 6 7 5 6 7 13 17 20 19 17 14 13 15 16 15 14 13 12 7 12 12 7 6 6 4 5 8 10 11 12 15 21 25
7 8 7 7 6 3 1 3 4 6 7 6 5 6 7 7 12 16 17 15 14 13 15 15 14 15 14 15 11 7 11 11 11 10 12 7 6 8 11 12 11 15 21
7 8 8 8 7 5 2 1 4 7 8 8 8 7 7 6 6 10 13 13 13 13 15 16 16 15 16 16 15 12 9 8 9 12 17 13 11 8 10 12 12 12 18
Wind_Direction
198 187 186 179 176 174 171 168 164 160 153 147 140 132 123 115 109 103 96 90 86 81 77 74 71 70 69 67 65 62 60 58 54 52 50 55 65 67 66 65 60 56 59
168 179 185 180 177 176 175 172 168 164 159 154 148 140 131 123 116 110 103 97 92 87 82 78 74 71 71 70 69 68 66 62 57 52 46 40 52 65 63 62 63 61 61
157 173 184 179 178 178 177 175 171 169 166 161 156 148 140 134 126 119 112 105 98 93 87 82 78 75 74 74 73 72 70 65 59 50 41 31 34 62 63 61 60 60 60
161 171 183 179 179 180 180 179 176 175 172 169 164 158 152 147 140 132 124 117 109 102 95 89 84 80 78 78 76 75 72 65 57 47 38 29 27 58 61 61 60 59 58
163 172 183 180 180 182 182 182 180 179 177 175 172 167 164 158 152 145 139 132 122 114 106 98 90 85 82 82 80 79 74 65 54 45 36 28 24 54 61 60 59 58 57
165 173 184 181 182 184 185 185 184 184 183 181 179 177 174 170 165 157 153 145 138 131 121 111 99 91 87 88 88 85 79 65 52 43 32 23 16 49 60 59 58 57 56
164 174 185 183 185 187 188 188 188 188 189 188 187 185 185 181 175 171 166 161 157 151 142 131 117 104 93 92 97 95 87 67 49 35 21 11 7 50 57 56 56 56 54
163 172 185 187 188 190 191 191 192 193 194 194 194 193 193 190 186 183 181 179 177 172 164 153 140 125 110 100 104 107 99 71 46 24 7 359 0 46 55 53 52 54 54
165 173 185 194 192 193 194 195 195 197 198 199 199 200 199 198 197 195 194 193 192 191 186 182 174 161 147 129 121 125 124 100 49 358 346 343 348 27 48 47 45 48 51
169 180 188 198 195 193 195 198 198 200 202 204 204 204 204 204 205 205 202 202 204 205 204 205 208 210 212 218 219 202 173 154 232 304 314 321 327 343 12 24 23 29 36
189 194 192 198 198 192 191 198 200 203 205 207 207 206 206 205 206 210 203 208 214 216 218 221 225 230 233 246 258 247 183 197 244 271 284 298 304 303 306 308 313 321 333
199 198 196 198 197 191 191 195 199 201 203 206 206 205 203 196 199 205 205 213 222 226 228 230 232 238 233 225 268 299 231 238 248 261 271 282 284 283 281 278 276 277 278
201 198 199 198 196 192 191 190 192 195 196 200 199 198 193 189 193 197 203 214 227 236 234 238 246 222 211 219 239 254 257 255 254 258 264 272 275 274 273 270 267 267 266
199 203 200 195 196 197 193 190 189 190 193 194 195 194 186 182 187 191 197 206 214 220 220 221 223 224 225 231 238 246 251 252 254 258 261 265 269 270 269 267 264 263 261
210 205 199 194 197 196 195 193 193 195 196 196 195 196 193 188 190 195 202 207 213 217 218 220 224 228 233 238 242 244 247 249 252 254 257 260 264 266 267 266 264 261 260
216 206 196 198 198 195 199 199 199 198 198 197 198 199 199 198 197 197 203 209 215 217 220 222 225 229 236 241 245 245 248 251 252 252 254 256 259 262 264 264 263 262 260
221 203 196 199 196 199 204 204 202 198 198 201 204 204 204 204 203 202 206 213 219 220 221 224 230 234 242 243 247 249 250 251 251 252 252 253 253 257 260 262 263 262 260
213 197 196 201 198 203 206 205 204 200 202 208 207 206 208 209 208 206 211 220 220 216 214 215 217 223 236 239 246 248 248 249 250 251 251 250 249 250 252 256 258 259 260
202 191 190 198 198 201 202 204 206 205 210 212 210 211 213 213 212 211 219 224 216 210 214 221 216 214 233 240 246 249 246 248 250 251 248 246 245 244 245 250 253 254 256
113 177 189 197 197 187 186 194 206 217 220 218 217 220 217 217 215 217 225 225 211 209 218 219 226 219 227 238 252 258 250 245 244 244 246 247 244 242 241 241 244 248 250
38 40 203 198 192 167 168 189 208 227 226 227 228 227 223 222 219 219 228 224 214 221 227 222 222 227 233 216 246 275 263 245 244 244 242 241 242 240 238 236 237 238 243
28 19 3 259 203 189 185 176 187 201 222 224 228 231 228 226 224 224 227 229 221 226 230 224 216 221 226 192 197 240 292 292 245 239 237 236 239 238 236 235 233 233 234
24 13 9 355 230 201 181 151 127 96 317 260 238 236 233 231 230 230 230 230 227 225 232 230 222 222 232 215 203 202 231 252 293 258 235 235 234 231 234 235 233 233 233
13 13 20 20 29 111 165 177 196 216 239 244 238 241 239 230 232 233 234 232 232 230 233 234 228 225 227 233 216 222 229 218 240 289 259 244 239 233 231 232 233 233 232
15 20 21 30 34 33 124 205 218 241 251 266 267 262 257 244 236 236 235 235 236 235 236 236 233 227 226 233 227 213 231 240 235 248 269 258 243 231 229 228 228 229 230
19 21 20 27 24 18 14 277 239 255 268 281 281 275 272 262 250 242 239 238 240 240 239 239 238 233 232 232 233 225 215 216 218 227 248 257 257 239 225 227 226 226 228
Height
1542 1543 1546 1548 1550 1552 1554 1556 1557 1558 1559 1560 1561 1561 1562 1562 1562 1562 1562 1562 1562 1562 1561 1561 1561 1561 1560 1560 1560 1560 1560 1560 1560 1560 1560 1560 1561 1560 1559 1559 1559 1559 1559
1541 1542 1545 1547 1549 1552 1554 1556 1557 1558 1559 1560 1561 1562 1562 1562 1563 1563 1563 1563 1563 1562 1562 1562 1561 1561 1561 1561 1561 1561 1560 1560 1561 1561 1561 1561 1561 1561 1560 1560 1560 1560 1560
1540 1542 1544 1546 1549 1551 1553 1555 1557 1558 1559 1560 1561 1562 1562 1563 1563 1563 1563 1563 1563 1563 1563 1563 1562 1562 1562 1562 1561 1561 1561 1561 1561 1561 1562 1561 1562 1562 1561 1561 1561 1560 1560
1540 1541 1543 1545 1548 1550 1553 1555 1556 1558 1559 1560 1561 1562 1563 1563 1563 1563 1563 1564 1564 1564 1563 1563 1563 1563 1563 1562 1562 1562 1562 1562 1562 1562 1562 1562 1562 1563 1562 1562 1561 1561 1560
1539 1541 1543 1545 1547 1550 1552 1554 1556 1558 1559 1560 1561 1562 1563 1563 1563 1564 1564 1564 1564 1564 1564 1564 1564 1564 1563 1563 1563 1563 1563 1563 1563 1563 1563 1563 1563 1563 1563 1562 1561 1561 1561
1539 1540 1542 1544 1547 1549 1551 1553 1555 1557 1559 1560 1561 1562 1563 1563 1564 1564 1564 1564 1564 1564 1564 1564 1564 1564 1564 1564 1564 1564 1564 1564 1564 1564 1564 1564 1563 1563 1563 1562 1562 1561 1561
1538 1540 1541 1544 1546 1548 1550 1552 1554 1556 1558 1559 1561 1562 1563 1563 1564 1564 1564 1564 1564 1565 1565 1565 1565 1565 1565 1565 1565 1565 1564 1565 1565 1564 1564 1564 1563 1563 1563 1562 1562 1561 1561
1537 1539 1540 1543 1545 1547 1549 1551 1553 1555 1557 1559 1560 1561 1562 1563 1563 1564 1564 1564 1565 1565 1565 1565 1565 1565 1565 1565 1565 1565 1565 1565 1565 1564 1564 1564 1563 1563 1563 1562 1562 1561 1560
1536 1537 1539 1541 1543 1545 1548 1550 1552 1554 1556 1558 1559 1560 1562 1562 1563 1564 1564 1564 1565 1565 1565 1565 1565 1565 1565 1565 1565 1565 1565 1565 1564 1564 1564 1564 1563 1563 1562 1562 1561 1561 1560
1534 1535 1537 1539 1541 1543 1545 1548 1550 1552 1554 1556 1558 1559 1560 1561 1562 1563 1564 1564 1564 1564 1565 1565 1565 1565 1565 1565 1564 1564 1564 1564 1564 1564 1564 1563 1563 1562 1562 1561 1561 1560 1560
1531 1532 1534 1536 1538 1540 1543 1545 1548 1550 1552 1554 1556 1557 1559 1560 1561 1562 1562 1563 1564 1564 1564 1564 1564 1564 1564 1564 1564 1564 1564 1564 1563 1563 1563 1562 1562 1561 1561 1560 1560 1559 1559
1528 1529 1531 1533 1535 1537 1540 1542 1545 1547 1549 1551 1553 1555 1556 1557 1559 1560 1561 1562 1562 1563 1563 1563 1563 1563 1563 1563 1563 1562 1562 1562 1562 1562 1561 1561 1560 1560 1560 1559 1559 1558 1558
1525 1527 1528 1530 1532 1535 1537 1539 1542 1544 1546 1548 1550 1552 1554 1555 1557 1558 1559 1560 1561 1561 1561 1561 1561 1561 1561 1561 1561 1561 1560 1560 1560 1560 1559 1559 1558 1558 1558 1557 1557 1556 1556
1522 1524 1526 1528 1530 1532 1534 1536 1538 1541 1543 1545 1547 1549 1551 1552 1554 1555 1557 1558 1558 1559 1559 1559 1560 1559 1559 1559 1559 1558 1558 1558 1557 1557 1556 1556 1555 1555 1555 1555 1554 1554 1553
1518 1521 1523 1525 1527 1529 1531 1533 1535 1537 1540 1542 1544 1546 1548 1549 1551 1552 1554 1555 1555 1556 1556 1557 1557 1556 1556 1556 1555 1555 1555 1554 1554 1554 1553 1553 1552 1551 1551 1551 1551 1551 1550
1514 1517 1520 1522 1524 1527 1528 1530 1532 1534 1537 1539 1541 1542 1544 1546 1547 1549 1550 1551 1551 1552 1553 1553 1553 1552 1552 1551 1551 1551 1550 1550 1550 1549 1549 1548 1548 1547 1547 1547 1547 1547 1547
1511 1513 1516 1518 1521 1523 1525 1527 1529 1531 1533 1535 1537 1539 1540 1542 1543 1544 1545 1546 1547 1548 1548 1548 1548 1547 1546 1546 1545 1545 1545 1545 1544 1544 1544 1543 1543 1542 1542 1542 1541 1541 1542
1508 1510 1512 1514 1517 1519 1521 1523 1525 1527 1529 1531 1533 1534 1536 1537 1538 1539 1540 1540 1542 1542 1542 1542 1542 1541 1540 1540 1539 1539 1538 1538 1537 1537 1536 1536 1536 1536 1536 1536 1535 1535 1535
1506 1508 1509 1511 1513 1515 1517 1520 1522 1523 1525 1526 1528 1529 1531 1532 1533 1533 1534 1534 1535 1536 1536 1536 1535 1534 1533 1533 1532 1531 1530 1529 1528 1528 1527 1527 1527 1528 1528 1528 1528 1528 1528
1507 1507 1508 1509 1511 1512 1514 1516 1518 1519 1520 1522 1523 1524 1525 1526 1527 1527 1527 1527 1528 1528 1528 1528 1527 1527 1526 1526 1524 1521 1519 1519 1518 1517 1517 1517 1517 1518 1518 1519 1520 1520 1520
1509 1509 1509 1509 1510 1510 1511 1513 1514 1515 1516 1517 1518 1519 1519 1520 1520 1520 1520 1520 1520 1519 1519 1519 1519 1518 1517 1518 1515 1511 1508 1508 1505 1505 1506 1506 1506 1507 1507 1508 1509 1509 1510
1511 1510 1510 1509 1509 1509 1510 1511 1511 1512 1512 1513 1513 1513 1513 1513 1513 1512 1512 1511 1511 1510 1510 1510 1510 1508 1508 1509 1507 1504 1498 1494 1492 1493 1493 1493 1494 1495 1495 1496 1497 1497 1499
1513 1512 1511 1510 1509 1509 1509 1509 1509 1509 1509 1509 1508 1508 1508 1507 1506 1505 1504 1504 1503 1502 1500 1500 1500 1499 1497 1498 1498 1498 1494 1484 1483 1480 1481 1482 1483 1484 1485 1486 1486 1487 1488
1516 1515 1513 1512 1511 1510 1509 1508 1508 1507 1506 1505 1504 1503 1502 1501 1500 1498 1497 1495 1494 1493 1491 1491 1490 1488 1488 1486 1486 1485 1484 1482 1481 1472 1470 1471 1471 1472 1473 1475 1475 1476 1478
1518 1517 1515 1514 1512 1511 1509 1508 1506 1505 1503 1502 1500 1498 1497 1495 1493 1492 1490 1488 1486 1484 1482 1481 1480 1478 1477 1476 1475 1473 1472 1471 1469 1467 1458 1458 1459 1459 1461 1462 1463 1464 1466
1519 1518 1516 1514 1513 1511 1509 1507 1505 1503 1500 1498 1496 1494 1492 1490 1487 1485 1483 1480 1478 1476 1474 1472 1470 1468 1466 1464 1464 1462 1461 1459 1457 1456 1451 1446 1446 1445 1448 1448 1449 1451 1453